Terminal Aerodrome Forecast
Issued by NWS Goodland, KS

Home | Current Version | Previous Version | Text Only | Print | Product List | Glossary On
Versions: 1 2 3 4 5 6 7 8 9 10 11 12 13 14 15 16 17 18 19 20 21 22 23
000
FTUS43 KGLD 190520
TAFGLD
TAF
KGLD 190520Z 1906/2006 VRB04KT 6SM BR BKN060
      TEMPO 1908/1912 3SM BR SCT010
     FM191300 26006KT P6SM SCT010 SCT120
     FM192100 23010KT P6SM SCT200=

USA.gov is the U.S. government's official web portal to all federal, state and local government web resources and services.